This demonstration page uses our WeatherBlox Daily Observations layout. Learn more.

Left ArrowRight Arrow

Hourly Observations for February 28, 2021

Temp ( °F °C ) Dew Point ( °F °C ) Humidity (%) Winds ( mph kmh ) Pressure ( in mb ) Visibility ( mi km ) Precip ( " mm )
12:56 am 00:56 Clear 30 -1.1 29 -1.7 96 96 NW 12 19 29.87 1012 10 16 0.00 0.00
1:56 am 01:56 Clear 29 -1.7 28 -2.2 96 96 NNW 12 19 29.89 1012 10 16 0.00 0.00
2:04 am 02:04 Partly Cloudy 28 -2 28 -2 100 100 NNW 14 22 29.97 1015 7 11 0.00 0.00
2:12 am 02:12 Mostly Cloudy with Mist and Fog 28 -2 28 -2 100 100 NNW 15 24 29.97 1015 4 6 0.00 0.00
2:23 am 02:23 Cloudy with Mist and Fog 28 -2 28 -2 100 100 NNW 14 22 29.97 1015 2 3 0.00 0.00
2:37 am 02:37 Cloudy with Mist and Fog 28 -2 28 -2 100 100 NNW 14 22 29.97 1015 6 10 0.00 0.00
2:56 am 02:56 Cloudy 30 -1.1 29 -1.7 96 96 NNW 13 20 29.91 1013 10 16 0.00 0.00
3:17 am 03:17 Cloudy 30 -1 30 -1 100 100 NW 7 11 29.96 1015 10 16 0.00 0.00
3:27 am 03:27 Mostly Cloudy 30 -1 30 -1 100 100 W 5 7 29.95 1014 10 16 0.00 0.00
3:39 am 03:39 Partly Cloudy 30 -1 28 -2 93 93 W 7 11 29.95 1014 10 16 0.00 0.00
3:56 am 03:56 Clear 29 -1.7 28 -2.2 96 96 W 7 11 29.90 1012 10 16 0.00 0.00
4:24 am 04:24 Mostly Cloudy 28 -2 28 -2 100 100 WNW 12 19 29.99 1015 10 16 0.00 0.00
4:44 am 04:44 Cloudy 30 -1 28 -2 93 93 WNW 17 28 30.00 1016 10 16 0.00 0.00
4:56 am 04:56 Cloudy 30 -1.1 29 -1.7 96 96 NW 8 13 29.94 1014 10 16 0.00 0.00
5:18 am 05:18 Cloudy 30 -1 30 -1 100 100 NW 10 17 30.01 1016 10 16 0.00 0.00
5:40 am 05:40 Cloudy 32 0 30 -1 93 93 NW 9 15 30.01 1016 10 16 0.00 0.00
5:56 am 05:56 Cloudy 32 0 31 -0.6 96 96 NNW 8 13 29.96 1015 10 16 0.00 0.00
6:03 am 06:03 Cloudy 32 0 30 -1 93 93 NW 8 13 30.02 1017 10 16 0.00 0.00
6:43 am 06:43 Cloudy 32 0 30 -1 93 93 NW 12 19 30.03 1017 10 16 0.00 0.00
6:56 am 06:56 Cloudy 32 0 31 -0.6 96 96 NW 16 26 29.99 1016 10 16 0.00 0.00
7:56 am 07:56 Cloudy 29 -1.7 25 -3.9 85 85 NNW 17 28 30.05 1018 10 16 0.00 0.00
8:56 am 08:56 Cloudy 29 -1.7 24 -4.4 82 82 NNW 17 28 30.09 1019 10 16 0.00 0.00
9:56 am 09:56 Mostly Cloudy 31 -0.6 23 -5 72 72 N 23 37 30.13 1020 10 16 0.00 0.00
10:56 am 10:56 Cloudy 30 -1.1 22 -5.6 72 72 NNW 21 33 30.16 1021 10 16 0.00 0.00
11:56 am 11:56 Cloudy 32 0 21 -6.1 64 64 NNW 16 26 30.18 1022 10 16 0.00 0.00
12:56 pm 12:56 Cloudy 34 1.1 21 -6.1 59 59 N 18 30 30.18 1022 10 16 0.00 0.00
1:56 pm 13:56 Cloudy 34 1.1 21 -6.1 59 59 N 13 20 30.17 1022 10 16 0.00 0.00
2:56 pm 14:56 Cloudy 36 2.2 22 -5.6 57 57 NW 13 20 30.17 1022 10 16 0.00 0.00
3:37 pm 15:37 Partly Cloudy 37 3 23 -5 56 56 NNW 13 20 30.18 1022 10 16 0.00 0.00
3:56 pm 15:56 Sunny 37 2.8 23 -5 57 57 NNW 12 19 30.17 1022 10 16 0.00 0.00
4:56 pm 16:56 Sunny 38 3.3 23 -5 55 55 NNW 9 15 30.17 1022 10 16 0.00 0.00
5:56 pm 17:56 Sunny 37 2.8 23 -5 57 57 NNW 5 7 30.16 1022 10 16 0.00 0.00
6:56 pm 18:56 Clear 34 1.1 23 -5 64 64 Calm 30.18 1022 10 16 0.00 0.00
7:56 pm 19:56 Clear 30 -1.1 23 -5 75 75 S 3 6 30.21 1023 10 16 0.00 0.00
8:56 pm 20:56 Clear 30 -1.1 23 -5 75 75 SW 6 9 30.22 1023 10 16 0.00 0.00
9:56 pm 21:56 Clear 26 -3.3 22 -5.6 84 84 SSW 7 11 30.23 1024 10 16 0.00 0.00
10:56 pm 22:56 Clear 28 -2.2 23 -5 81 81 SSW 9 15 30.24 1024 10 16 0.00 0.00
11:56 pm 23:56 Clear 30 -1.1 24 -4.4 79 79 SW 10 17 30.23 1024 10 16 0.00 0.00

Powered by AerisWeather